Location: Church Tower
(37.7144°N, 119.6316°W)
Time: 19:31:03
(UTC+00:00)

Cosmos 1624 Rocket - Pass Details

Date: 15 November 2025
Orbit: 753 x 779 km, 74.0° (Epoch: 08 December)

Event Time Altitude Azimuth Distance (km) Brightness Sun altitude
Exits shadow 12:55:24 25° 224° (SW) 1,475 5.1 -20.5°
Maximum altitude 12:58:11 54° 291° (WNW) 915 4.0 -20.0°
Drops below altitude 10° 13:03:15 10° 9° (N) 2,283 6.4 -19.0°
Sets 13:05:41 0° 14° (NNE) 3,212 7.3 -18.5°
